This is the latest recevied weather packets stored in our database for station/object SP9KB-13. If no packets are shown the sender has not sent any weather packets the latest 10 day(s).
| Time | Temp. | Humidity | Pressure | Rain* | Wind** | Luminosity | Snow |
|---|---|---|---|---|---|---|---|
| 1777366829 | 7.78° C | 48% | 1003.4 hPa | 0 mm | - | - | - |
| 1777366528 | 7.78° C | 49% | 1003.5 hPa | 0 mm | - | - | - |
| 1777366227 | 7.78° C | 50% | 1003.4 hPa | 0 mm | - | - | - |
| 1777365927 | 7.78° C | 49% | 1003.6 hPa | 0 mm | - | - | - |
| 1777365626 | 7.22° C | 52% | 1003.6 hPa | 0 mm | - | - | - |
| 1777365326 | 7.22° C | 50% | 1003.5 hPa | 0 mm | - | - | - |
| 1777365025 | 7.78° C | 51% | 1003.5 hPa | 0 mm | - | - | - |
| 1777364725 | 7.22° C | 51% | 1003.4 hPa | 0 mm | - | - | - |
| 1777364424 | 7.22° C | 53% | 1003.6 hPa | 0 mm | - | - | - |
| 1777364124 | 7.22° C | 52% | 1003.5 hPa | 0 mm | - | - | - |
| 1777363823 | 6.67° C | 53% | 1003.5 hPa | 0 mm | - | - | - |
| 1777363523 | 6.67° C | 54% | 1003.5 hPa | 0 mm | - | - | - |
| 1777363222 | 6.67° C | 56% | 1003.7 hPa | 0 mm | - | - | - |
| 1777362921 | 6.67° C | 56% | 1003.6 hPa | 0 mm | - | - | - |
| 1777362621 | 6.11° C | 58% | 1003.6 hPa | 0 mm | - | - | - |
| 1777362320 | 6.11° C | 59% | 1003.6 hPa | 0 mm | - | - | - |
| 1777362020 | 5.56° C | 61% | 1003.7 hPa | 0 mm | - | - | - |
| 1777361719 | 5.56° C | 64% | 1003.8 hPa | 0 mm | - | - | - |
| 1777361418 | 5.56° C | 63% | 1003.9 hPa | 0 mm | - | - | - |
| 1777361118 | 5° C | 66% | 1003.6 hPa | 0 mm | - | - | - |
| 1777360817 | 5.56° C | 65% | 1003.7 hPa | 0 mm | - | - | - |
| 1777360517 | 5.56° C | 65% | 1003.7 hPa | 0 mm | - | - | - |
| 1777360216 | 5° C | 65% | 1003.4 hPa | 0 mm | - | - | - |
| 1777359915 | 5° C | 65% | 1003.8 hPa | 0 mm | - | - | - |
| 1777359615 | 5° C | 66% | 1003.7 hPa | 0 mm | - | - | - |
* Rain latest hour (hover to see other rain measurements)
** Current wind speed in m/s (hover to see current wind gust speed)